Location: Brantford
(43.1330°N, 80.2670°W)
Time: 04:50:29
(UTC-05:00)

Tiros 1 despin weight - Pass Details

Date: 22 November 2019
Orbit: 594 x 642 km, 48.2° (Epoch: 08 December)

Event Time Altitude Azimuth Distance (km) Brightness Sun altitude
Rises 18:16:09 0° 292° (WNW) 2,847 ? -15.2°
Reaches altitude 10° 18:18:32 10° 284° (WNW) 1,947 ? -15.7°
Maximum altitude 18:22:40 38° 217° (SW) 933 ? -16.4°
Drops below altitude 10° 18:26:51 10° 149° (SSE) 1,965 ? -17.1°
Enters shadow 18:28:00 - 145° (SE) 2,389 ? -17.4°
